TimeEDT,TemperatureF,Dew PointF,Humidity,Sea Level PressureIn,VisibilityMPH,Wind Direction,Wind SpeedMPH,Gust SpeedMPH,PrecipitationIn,Events,Conditions,WindDirDegrees,DateUTC
12:51 AM,66.9,61.0,81,30.18,10.0,NE,5.8,-,N/A,,Clear,40,2013-09-06 04:51:00
1:51 AM,64.9,57.0,75,30.19,10.0,NE,5.8,-,N/A,,Mostly Cloudy,40,2013-09-06 05:51:00
2:51 AM,63.0,53.1,70,30.19,10.0,NNE,4.6,-,N/A,,Clear,20,2013-09-06 06:51:00
3:51 AM,62.1,52.0,70,30.19,10.0,NE,5.8,-,N/A,,Clear,40,2013-09-06 07:51:00
4:51 AM,60.1,51.1,72,30.18,10.0,NE,3.5,-,N/A,,Clear,40,2013-09-06 08:51:00
5:51 AM,59.0,51.1,75,30.20,10.0,NNE,5.8,-,N/A,,Partly Cloudy,30,2013-09-06 09:51:00
6:51 AM,57.0,51.1,81,30.21,10.0,NNE,3.5,-,N/A,,Partly Cloudy,30,2013-09-06 10:51:00
7:51 AM,57.9,52.0,81,30.22,10.0,NNE,3.5,-,N/A,,Clear,30,2013-09-06 11:51:00
8:51 AM,61.0,52.0,72,30.22,10.0,NNE,4.6,-,N/A,,Clear,30,2013-09-06 12:51:00
9:51 AM,64.0,54.0,70,30.23,10.0,NNE,4.6,-,N/A,,Clear,30,2013-09-06 13:51:00
10:51 AM,68.0,55.0,63,30.22,10.0,Calm,Calm,-,N/A,,Clear,0,2013-09-06 14:51:00
11:51 AM,73.0,55.9,55,30.22,10.0,Variable,4.6,-,N/A,,Clear,0,2013-09-06 15:51:00
12:51 PM,75.9,46.9,36,30.20,10.0,NNE,4.6,-,N/A,,Clear,20,2013-09-06 16:51:00
1:51 PM,77.0,46.0,33,30.18,10.0,NE,3.5,-,N/A,,Clear,40,2013-09-06 17:51:00
2:51 PM,78.1,46.9,33,30.16,9.0,Calm,Calm,-,N/A,,Clear,0,2013-09-06 18:51:00
3:51 PM,79.0,46.9,32,30.14,10.0,Variable,4.6,-,N/A,,Clear,0,2013-09-06 19:51:00
4:51 PM,80.1,46.0,30,30.12,10.0,North,3.5,-,N/A,,Clear,10,2013-09-06 20:51:00
5:51 PM,78.1,44.1,30,30.11,10.0,NNE,3.5,-,N/A,,Clear,30,2013-09-06 21:51:00
6:51 PM,73.9,51.1,45,30.13,10.0,NNE,3.5,-,N/A,,Clear,20,2013-09-06 22:51:00
7:51 PM,70.0,52.0,53,30.12,10.0,Calm,Calm,-,N/A,,Clear,0,2013-09-06 23:51:00
8:51 PM,68.0,51.1,55,30.13,10.0,Calm,Calm,-,N/A,,Clear,0,2013-09-07 00:51:00
9:51 PM,63.0,55.0,75,30.13,10.0,Calm,Calm,-,N/A,,Clear,0,2013-09-07 01:51:00
10:51 PM,59.0,55.0,87,30.12,10.0,Calm,Calm,-,N/A,,Clear,0,2013-09-07 02:51:00
11:51 PM,57.9,55.0,90,30.12,10.0,Calm,Calm,-,N/A,,Clear,0,2013-09-07 03:51:00